This is the latest recevied weather packets stored in our database for station/object F4DVI. If no packets are shown the sender has not sent any weather packets the latest 1 day(s).
| Time | Temp. | Humidity | Pressure | Rain* | Wind** | Luminosity | Snow |
|---|---|---|---|---|---|---|---|
| 1778070511 | 17.22° C | 62% | 0 hPa | 0.25 mm | - | - | - |
| 1778069911 | 17.22° C | 63% | 0 hPa | 0.25 mm | - | - | - |
| 1778069611 | 17.22° C | 61% | 0 hPa | 0.25 mm | - | - | - |
| 1778069311 | 17.78° C | 61% | 0 hPa | 0.25 mm | - | - | - |
| 1778069011 | 18.33° C | 62% | 0 hPa | 0.25 mm | - | - | - |
| 1778068711 | 17.78° C | 62% | 0 hPa | 0.25 mm | - | - | - |
| 1778068411 | 17.78° C | 61% | 0 hPa | 0.25 mm | - | - | - |
| 1778068111 | 17.78° C | 62% | 0 hPa | 0.25 mm | - | - | - |
| 1778067511 | 17.78° C | 65% | 0 hPa | 0 mm | - | - | - |
| 1778067211 | 18.33° C | 64% | 0 hPa | 0 mm | - | - | - |
| 1778066911 | 17.78° C | 67% | 0 hPa | 0 mm | - | - | - |
| 1778066611 | 17.78° C | 68% | 0 hPa | 0 mm | - | - | - |
| 1778066311 | 17.78° C | 68% | 0 hPa | 0 mm | - | - | - |
| 1778066011 | 17.22° C | 68% | 0 hPa | 0 mm | - | - | - |
| 1778065711 | 17.22° C | 68% | 0 hPa | 0 mm | - | - | - |
| 1778065411 | 17.22° C | 71% | 0 hPa | 0 mm | - | - | - |
| 1778065111 | 16.67° C | 71% | 0 hPa | 0 mm | - | - | - |
| 1778064811 | 16.11° C | 71% | 0 hPa | 0 mm | - | - | - |
| 1778064511 | 16.11° C | 71% | 0 hPa | 0 mm | - | - | - |
| 1778064211 | 16.11° C | 72% | 0 hPa | 0 mm | - | - | - |
| 1778063611 | 15.56° C | 78% | 0 hPa | 0 mm | - | - | - |
| 1778063311 | 15° C | 81% | 0 hPa | 0 mm | - | - | - |
| 1778062711 | 13.33° C | 83% | 0 hPa | 0 mm | - | - | - |
| 1778062411 | 12.78° C | 83% | 0 hPa | 0 mm | - | - | - |
| 1778060611 | 12.78° C | 85% | 0 hPa | 0 mm | - | - | - |
* Rain latest hour (hover to see other rain measurements)
** Current wind speed in m/s (hover to see current wind gust speed)